カタログに戻る

TITAN 3C TRANSTAGE DEB

LostHEO
NORAD 28550·DEBRIS·🇺🇸 United States

打ち上げ Dec 21, 1965 から Cape Canaveral Space Force Station

Loading…

次のパス (今後24時間)

TLE

古いSource: Space-Track

元期: Oct 12, 2025, 20:02 UTC

1 28550U 65108BR  25285.83527057 -.00000278  00000-0 -41689-2 0  9998
2 28550  27.0896 327.1499 6708238 136.1811   6.5996  2.75887606 40844

AllMySatでTITAN 3C TRANSTAGE DEBをリアルタイム追跡

Download on the App Store